Other Public Products
Issued by NWS Charleston, SC

Current Version | Previous Version | Text Only | Print | Product List | Glossary Off
Versions: 1 2 3 4 5 6 7 8 9 10 11 12 13 14 15 16 17 18 19 20 21 22 23 24 25 26 27 28 29 30 31 32 33 34 35 36 37 38 39 40 41 42 43 44 45 46 47 48 49 50
072 FPUS82 KCHS 221412 OPUCHS TEST...KCHS/KSAV Gateway Observations...TEST National Weather Service Charleston SC 900 AM EST THU FEB 22 2018 NOTE: "fair" indicates few or no clouds below 12,000 feet with no significant weather and/or obstructions to visibility. SCZ050-WAZ558-NCZ071-TXZ119-213-PAZ071-DCZ001-FLZ074-172-MI076- NYZ176-178-MAZ016-IL014-TNZ027-NJZ106-GAZ044-MD014-221500- ...Gateway Observations for Charleston International... CITY SKY/WX TMP DP RH WIND PRES REMARKS Chas Airport FAIR 71 68 90 S6 30.49R Seattle MOCLDY 28 24 85 N9 30.21R WCI 19 Charlotte CLOUDY 67 64 90 SW9 30.48R Dallas DFW TSTM 36 34 92 N9 30.27R VSB 1/2 WCI 29 Dallas Love TSTM 35 34 96 N8 30.28S FOG WCI 29 Philladelphia LGT RAIN 48 41 76 NE13 30.55R Wash National CLOUDY 56 38 50 NE15 30.48R Baltimore CLOUDY 52 37 56 NE12 30.49R Miami CLOUDY 76 69 79 E21G26 30.36R Detroit CLOUDY 32 22 66 N12 30.62R WCI 23 Newark LGT RAIN 44 37 76 N14G23 30.59R Laguardia CLOUDY 46 37 71 NE10 30.58S J F K CLOUDY 46 37 71 NE18G25 30.58R Boston Logan CLOUDY 41 30 65 NE12 30.64R Ft. Lauderdale PTSUNNY 78 71 79 E21 30.35R Chicago O`Hare CLOUDY 34 27 75 NE13 30.55R WCI 25 Chicago Midway CLOUDY 34 28 79 NE10 30.54S WCI 26 Houston Bush DRZL/FOG 56 55 97 NE7 30.21R VSB 1/2 Houston Hobby CLOUDY 57 57 100 N6 30.20R FOG Nashville PTSUNNY 63 60 90 S9 30.31R Atlanta PTSUNNY 65 64 97 SE6 30.45R $$ GAZ044-118-TXZ119-213-NCZ071-DCZ001-MDZ014-506-PAZ021-071-NJZ106- NYZ176-178-MAZ106-OHZ011-021-055-MIZ076-KYZ091-ILZ014-INZ047- MNZ060-ONZ431-221500- ...Gateway Observations for Savannah International... CITY SKY/WX TMP DP RH WIND PRES REMARKS Savannah Arpt FAIR 68 66 93 CALM 30.49R Atlanta PTSUNNY 65 64 97 SE6 30.45R Charlotte CLOUDY 67 64 90 SW9 30.48R Dallas DFW TSTM 36 34 92 N9 30.27R VSB 1/2 WCI 29 Houston Bush DRZL/FOG 56 55 97 NE7 30.21R VSB 1/2 Wash National CLOUDY 56 38 50 NE15 30.48R Wash Dulles CLOUDY 50 42 74 N12 30.48S Baltimore CLOUDY 52 37 56 NE12 30.49R Philadelphia LGT RAIN 48 41 76 NE13 30.55R Newark LGT RAIN 44 37 76 N14G23 30.59R Laguardia CLOUDY 46 37 71 NE10 30.58S J F K CLOUDY 46 37 71 NE18G25 30.58R Boston CLOUDY 41 30 65 NE12 30.64R Pittsburg RAIN 40 40 100 NE14G20 30.47S FOG WCI 32 Akron LGT RAIN 35 30 82 NE14 30.48F WCI 26 Cleveland LGT RAIN 34 31 88 E9 30.56S WCI 27 Cincinnati CLOUDY 40 40 100 E18G28 30.33S WCI 31 Columbus LGT RAIN 37 37 98 NE16 30.44R WCI 28 Detroit CLOUDY 32 22 66 N12 30.62R WCI 23 Chicago O`Hare CLOUDY 34 27 75 NE13 30.55R WCI 25 Minneapolis MOCLDY 13 5 70 SE8 30.59S WCI 2 Indianapolis CLOUDY 37 35 92 NE17 30.45R WCI 27 Toronto Canada CLOUDY 28 21 74 NE9 30.65R WCI 20 $$

USA.gov is the U.S. government's official web portal to all federal, state and local government web resources and services.